This demonstration page uses our WeatherBlox Daily Observations layout. Learn more.

Left ArrowRight Arrow

36.17497, -115.13722

Hourly Observations for May 8, 2021

Temp ( °F °C ) Dew Point ( °F °C ) Humidity (%) Winds ( mph kmh ) Pressure ( in mb ) Visibility ( mi km ) Precip ( " mm )
12:53 am 00:53 Clear 76 24.4 20 -6.7 12 12 SSW 9 15 29.7 1006 10 16.0934 N/A
1:53 am 01:53 Clear 74 23.3 19 -7.2 12 12 SW 8 13 29.7 1006 10 16.0934 N/A
2:53 am 02:53 Clear 71 21.7 22 -5.6 16 16 N N/A 29.71 1006 10 16.0934 N/A
3:53 am 03:53 Clear 72 22.2 21 -6.1 15 15 E 7 11 29.72 1006 10 16.0934 N/A
4:53 am 04:53 Clear 73 22.8 20 -6.7 13 13 NNW 7 11 29.73 1007 10 16.0934 N/A
5:53 am 05:53 Sunny 71 21.7 22 -5.6 16 16 SSW 8 13 29.77 1008 10 16.0934 N/A
6:53 am 06:53 Sunny 77 25 23 -5 13 13 NNW 15 24 29.8 1009 10 16.0934 N/A
7:53 am 07:53 Sunny 79 26.1 22 -5.6 12 12 NW 23 37 29.82 1010 10 16.0934 N/A
8:53 am 08:53 Sunny 80 26.7 23 -5 12 12 NW 20 31 29.84 1011 10 16.0934 N/A
9:53 am 09:53 Sunny 82 27.8 22 -5.6 11 11 NNW 21 33 29.84 1011 10 16.0934 N/A
10:53 am 10:53 Sunny 84 28.9 22 -5.6 10 10 NNW 23 37 29.84 1011 10 16.0934 N/A
11:53 am 11:53 Sunny 86 30 22 -5.6 9 9 NNW 18 30 29.84 1011 10 16.0934 N/A
12:53 pm 12:53 Sunny 87 30.6 20 -6.7 8 8 NNW 17 28 29.83 1010 10 16.0934 N/A
1:53 pm 13:53 Sunny 89 31.7 18 -7.8 7 7 NNW 14 22 29.81 1010 10 16.0934 N/A
2:53 pm 14:53 Sunny 88 31.1 15 -9.4 7 7 NNW 8 13 29.8 1009 10 16.0934 N/A
3:53 pm 15:53 Sunny 90 32.2 10 -12.2 5 5 NNW 13 20 29.77 1008 10 16.0934 N/A
4:53 pm 16:53 Sunny 90 32.2 1 -17.2 3 3 NW 20 31 29.75 1008 10 16.0934 N/A
5:53 pm 17:53 Sunny 89 31.7 -4 -20 3 3 NW 16 26 29.75 1007 10 16.0934 N/A
6:53 pm 18:53 Sunny 87 30.6 3 -16.1 4 4 NW 17 28 29.74 1007 10 16.0934 N/A
7:53 pm 19:53 Clear 84 28.9 4 -15.6 4 4 NNW 8 13 29.75 1008 10 16.0934 N/A
8:53 pm 20:53 Clear 82 27.8 6 -14.4 5 5 NNE 3 6 29.78 1008 10 16.0934 N/A
9:53 pm 21:53 Clear 81 27.2 5 -15 5 5 NW 5 7 29.79 1009 10 16.0934 N/A
10:53 pm 22:53 Clear 76 24.4 10 -12.2 8 8 W 10 17 29.79 1009 10 16.0934 N/A
11:53 pm 23:53 Clear 76 24.4 9 -12.8 7 7 N N/A 29.79 1009 10 16.0934 N/A

Powered by AerisWeather